Year,Month,Day,Hour,Minute,Value (Times are PST for temperature in C)
2014,09,20,00,00,12.40
2014,09,20,00,01,12.40
2014,09,20,00,02,12.40
2014,09,20,00,03,12.30
2014,09,20,00,04,12.30
2014,09,20,00,05,12.20
2014,09,20,00,06,12.20
2014,09,20,00,07,12.20
2014,09,20,00,08,12.20
2014,09,20,00,09,12.20
2014,09,20,00,10,12.10
2014,09,20,00,11,12.10
2014,09,20,00,12,12.10
2014,09,20,00,13,12.00
2014,09,20,00,14,12.00
2014,09,20,00,15,12.00
2014,09,20,00,16,11.90
2014,09,20,00,17,11.90
2014,09,20,00,18,11.90
2014,09,20,00,19,11.80
2014,09,20,00,20,11.80
2014,09,20,00,21,11.80
2014,09,20,00,22,11.80
2014,09,20,00,23,11.90
2014,09,20,00,24,11.90
2014,09,20,00,25,11.90
2014,09,20,00,26,11.90
2014,09,20,00,27,11.90
2014,09,20,00,28,12.00
2014,09,20,00,29,12.00
2014,09,20,00,30,12.00
2014,09,20,00,31,12.00
2014,09,20,00,32,12.00
2014,09,20,00,33,12.00
2014,09,20,00,34,12.00
2014,09,20,00,35,12.00
2014,09,20,00,36,12.00
2014,09,20,00,37,11.90
2014,09,20,00,38,11.90
2014,09,20,00,39,11.90
2014,09,20,00,40,11.90
2014,09,20,00,41,11.90
2014,09,20,00,42,11.90
2014,09,20,00,43,11.90
2014,09,20,00,44,11.90
2014,09,20,00,45,11.90
2014,09,20,00,46,11.90
2014,09,20,00,47,11.90
2014,09,20,00,48,11.90
2014,09,20,00,49,11.90
2014,09,20,00,50,11.90
2014,09,20,00,51,11.90
2014,09,20,00,52,11.90
2014,09,20,00,53,11.90
2014,09,20,00,54,11.90
2014,09,20,00,55,11.90
2014,09,20,00,56,11.90
2014,09,20,00,57,11.90
2014,09,20,00,58,12.00
2014,09,20,00,59,12.00
2014,09,20,01,00,12.10
2014,09,20,01,01,12.10
2014,09,20,01,02,12.10
2014,09,20,01,03,12.20
2014,09,20,01,04,12.20
2014,09,20,01,05,12.10
2014,09,20,01,06,12.10
2014,09,20,01,07,12.10
2014,09,20,01,08,12.10
2014,09,20,01,09,12.10
2014,09,20,01,10,12.20
2014,09,20,01,11,12.20
2014,09,20,01,12,12.20
2014,09,20,01,13,12.20
2014,09,20,01,14,12.20
2014,09,20,01,15,12.20
2014,09,20,01,16,12.20
2014,09,20,01,17,12.20
2014,09,20,01,18,12.10
2014,09,20,01,19,12.10
2014,09,20,01,20,12.10
2014,09,20,01,21,12.00
2014,09,20,01,22,11.90
2014,09,20,01,23,11.90
2014,09,20,01,24,11.80
2014,09,20,01,25,11.80
2014,09,20,01,26,11.80
2014,09,20,01,27,11.80
2014,09,20,01,28,11.80
2014,09,20,01,29,11.70
2014,09,20,01,30,11.70
2014,09,20,01,31,11.80
2014,09,20,01,32,11.80
2014,09,20,01,33,11.80
2014,09,20,01,34,11.80
2014,09,20,01,35,11.80
2014,09,20,01,36,11.70
2014,09,20,01,37,11.70
2014,09,20,01,38,11.60
2014,09,20,01,39,11.60
2014,09,20,01,40,11.60
2014,09,20,01,41,11.60
2014,09,20,01,42,11.60
2014,09,20,01,43,11.70
2014,09,20,01,44,11.70
2014,09,20,01,45,11.70
2014,09,20,01,46,11.70
2014,09,20,01,47,11.70
2014,09,20,01,48,11.70
2014,09,20,01,49,11.70
2014,09,20,01,50,11.70
2014,09,20,01,51,11.60
2014,09,20,01,52,11.60
2014,09,20,01,53,11.60
2014,09,20,01,54,11.50
2014,09,20,01,55,11.50
2014,09,20,01,56,11.40
2014,09,20,01,57,11.40
2014,09,20,01,58,11.40
2014,09,20,01,59,11.40
2014,09,20,02,00,11.30
2014,09,20,02,01,11.30
2014,09,20,02,02,11.30
2014,09,20,02,03,11.30
2014,09,20,02,04,11.20
2014,09,20,02,05,11.20
2014,09,20,02,06,11.20
2014,09,20,02,07,11.10
2014,09,20,02,08,11.10
2014,09,20,02,09,11.10
2014,09,20,02,10,11.10
2014,09,20,02,11,11.10
2014,09,20,02,12,11.10
2014,09,20,02,13,11.10
2014,09,20,02,14,11.10
2014,09,20,02,15,11.10
2014,09,20,02,16,11.10
2014,09,20,02,17,11.10
2014,09,20,02,18,11.10
2014,09,20,02,19,11.10
2014,09,20,02,20,11.20
2014,09,20,02,21,11.20
2014,09,20,02,22,11.10
2014,09,20,02,23,11.10
2014,09,20,02,24,11.10
2014,09,20,02,25,11.00
2014,09,20,02,26,11.00
2014,09,20,02,27,11.00
2014,09,20,02,28,11.00
2014,09,20,02,29,11.00
2014,09,20,02,30,11.00
2014,09,20,02,31,11.00
2014,09,20,02,32,11.00
2014,09,20,02,33,11.00
2014,09,20,02,34,11.00
2014,09,20,02,35,11.00
2014,09,20,02,36,11.00
2014,09,20,02,37,11.00
2014,09,20,02,38,11.10
2014,09,20,02,39,11.10
2014,09,20,02,40,11.00
2014,09,20,02,41,11.00
2014,09,20,02,42,10.90
2014,09,20,02,43,10.90
2014,09,20,02,44,10.90
2014,09,20,02,45,10.80
2014,09,20,02,46,10.80
2014,09,20,02,47,10.80
2014,09,20,02,48,10.90
2014,09,20,02,49,10.90
2014,09,20,02,50,10.90
2014,09,20,02,51,10.90
2014,09,20,02,52,10.90
2014,09,20,02,53,10.90
2014,09,20,02,54,10.90
2014,09,20,02,55,11.00
2014,09,20,02,56,11.00
2014,09,20,02,57,11.10
2014,09,20,02,58,11.10
2014,09,20,02,59,11.20
2014,09,20,03,00,11.20
2014,09,20,03,01,11.30
2014,09,20,03,02,11.30
2014,09,20,03,03,11.30
2014,09,20,03,04,11.30
2014,09,20,03,05,11.30
2014,09,20,03,06,11.40
2014,09,20,03,07,11.40
2014,09,20,03,08,11.40
2014,09,20,03,09,11.40
2014,09,20,03,10,11.50
2014,09,20,03,11,11.50
2014,09,20,03,12,11.50
2014,09,20,03,13,11.60
2014,09,20,03,14,11.60
2014,09,20,03,15,11.60
2014,09,20,03,16,11.60
2014,09,20,03,17,11.60
2014,09,20,03,18,11.70
2014,09,20,03,19,11.70
2014,09,20,03,20,11.70
2014,09,20,03,21,11.70
2014,09,20,03,22,11.70
2014,09,20,03,23,11.70
2014,09,20,03,24,11.70
2014,09,20,03,25,11.70
2014,09,20,03,26,11.60
2014,09,20,03,27,11.60
2014,09,20,03,28,11.60
2014,09,20,03,29,11.60
2014,09,20,03,30,11.60
2014,09,20,03,31,11.60
2014,09,20,03,32,11.60
2014,09,20,03,33,11.50
2014,09,20,03,34,11.50
2014,09,20,03,35,11.50
2014,09,20,03,36,11.50
2014,09,20,03,37,11.50
2014,09,20,03,38,11.60
2014,09,20,03,39,11.60
2014,09,20,03,40,11.70
2014,09,20,03,41,11.70
2014,09,20,03,42,11.80
2014,09,20,03,43,11.80
2014,09,20,03,44,11.80
2014,09,20,03,45,11.80
2014,09,20,03,46,11.90
2014,09,20,03,47,11.90
2014,09,20,03,48,11.90
2014,09,20,03,49,11.80
2014,09,20,03,50,11.80
2014,09,20,03,51,11.80
2014,09,20,03,52,11.80
2014,09,20,03,53,11.80
2014,09,20,03,54,11.80
2014,09,20,03,55,11.80
2014,09,20,03,56,11.80
2014,09,20,03,57,11.80
2014,09,20,03,58,11.80
2014,09,20,03,59,11.80
2014,09,20,04,00,11.80
2014,09,20,04,01,11.80
2014,09,20,04,02,11.80
2014,09,20,04,03,11.70
2014,09,20,04,04,11.70
2014,09,20,04,05,11.70
2014,09,20,04,06,11.60
2014,09,20,04,07,11.60
2014,09,20,04,08,11.60
2014,09,20,04,09,11.60
2014,09,20,04,10,11.50
2014,09,20,04,11,11.50
2014,09,20,04,12,11.50
2014,09,20,04,13,11.50
2014,09,20,04,14,11.50
2014,09,20,04,15,11.50
2014,09,20,04,16,11.40
2014,09,20,04,17,11.40
2014,09,20,04,18,11.30
2014,09,20,04,19,11.20
2014,09,20,04,20,11.20
2014,09,20,04,21,11.10
2014,09,20,04,22,11.10
2014,09,20,04,23,11.00
2014,09,20,04,24,11.00
2014,09,20,04,25,10.90
2014,09,20,04,26,10.80
2014,09,20,04,27,10.80
2014,09,20,04,28,10.70
2014,09,20,04,29,10.70
2014,09,20,04,30,10.70
2014,09,20,04,31,10.70
2014,09,20,04,32,10.70
2014,09,20,04,33,10.70
2014,09,20,04,34,10.70
2014,09,20,04,35,10.70
2014,09,20,04,36,10.80
2014,09,20,04,37,10.80
2014,09,20,04,38,10.90
2014,09,20,04,39,10.90
2014,09,20,04,40,10.90
2014,09,20,04,41,10.90
2014,09,20,04,42,10.90
2014,09,20,04,43,10.90
2014,09,20,04,44,10.90
2014,09,20,04,45,10.90
2014,09,20,04,46,10.90
2014,09,20,04,47,10.90
2014,09,20,04,48,10.90
2014,09,20,04,49,10.90
2014,09,20,04,50,10.90
2014,09,20,04,51,10.90
2014,09,20,04,52,10.90
2014,09,20,04,53,10.90
2014,09,20,04,54,10.90
2014,09,20,04,55,10.90
2014,09,20,04,56,10.90
2014,09,20,04,57,10.90
2014,09,20,04,58,10.90
2014,09,20,04,59,10.80
2014,09,20,05,00,10.80
2014,09,20,05,01,10.80
2014,09,20,05,02,10.80
2014,09,20,05,03,10.80
2014,09,20,05,04,10.80
2014,09,20,05,05,10.80
2014,09,20,05,06,10.80
2014,09,20,05,07,10.80
2014,09,20,05,08,10.70
2014,09,20,05,09,10.70
2014,09,20,05,10,10.70
2014,09,20,05,11,10.60
2014,09,20,05,12,10.60
2014,09,20,05,13,10.60
2014,09,20,05,14,10.50
2014,09,20,05,15,10.50
2014,09,20,05,16,10.50
2014,09,20,05,17,10.50
2014,09,20,05,18,10.50
2014,09,20,05,19,10.50
2014,09,20,05,20,10.50
2014,09,20,05,21,10.50
2014,09,20,05,22,10.50
2014,09,20,05,23,10.50
2014,09,20,05,24,10.50
2014,09,20,05,25,10.60
2014,09,20,05,26,10.60
2014,09,20,05,27,10.60
2014,09,20,05,28,10.60
2014,09,20,05,29,10.60
2014,09,20,05,30,10.60
2014,09,20,05,31,10.50
2014,09,20,05,32,10.50
2014,09,20,05,33,10.40
2014,09,20,05,34,10.40
2014,09,20,05,35,10.40
2014,09,20,05,36,10.40
2014,09,20,05,37,10.30
2014,09,20,05,38,10.30
2014,09,20,05,39,10.30
2014,09,20,05,40,10.30
2014,09,20,05,41,10.30
2014,09,20,05,42,10.30
2014,09,20,05,43,10.30
2014,09,20,05,44,10.30
2014,09,20,05,45,10.20
2014,09,20,05,46,10.20
2014,09,20,05,47,10.20
2014,09,20,05,48,10.20
2014,09,20,05,49,10.20
2014,09,20,05,50,10.20
2014,09,20,05,51,10.20
2014,09,20,05,52,10.30
2014,09,20,05,53,10.30
2014,09,20,05,54,10.30
2014,09,20,05,55,10.30
2014,09,20,05,56,10.30
2014,09,20,05,57,10.30
2014,09,20,05,58,10.30
2014,09,20,05,59,10.30
2014,09,20,06,00,10.30
2014,09,20,06,01,10.30
2014,09,20,06,02,10.30
2014,09,20,06,03,10.30
2014,09,20,06,04,10.20
2014,09,20,06,05,10.20
2014,09,20,06,06,10.20
2014,09,20,06,07,10.10
2014,09,20,06,08,10.10
2014,09,20,06,09,10.10
2014,09,20,06,10,10.20
2014,09,20,06,11,10.20
2014,09,20,06,12,10.20
2014,09,20,06,13,10.20
2014,09,20,06,14,10.20
2014,09,20,06,15,10.20
2014,09,20,06,16,10.20
2014,09,20,06,17,10.20
2014,09,20,06,18,10.20
2014,09,20,06,19,10.20
2014,09,20,06,20,10.10
2014,09,20,06,21,10.10
2014,09,20,06,22,10.10
2014,09,20,06,23,10.10
2014,09,20,06,24,10.10
2014,09,20,06,25,10.10
2014,09,20,06,26,10.10
2014,09,20,06,27,10.10
2014,09,20,06,28,10.10
2014,09,20,06,29,10.20
2014,09,20,06,30,10.10
2014,09,20,06,31,10.10
2014,09,20,06,32,10.20
2014,09,20,06,33,10.20
2014,09,20,06,34,10.20
2014,09,20,06,35,10.20
2014,09,20,06,36,10.20
2014,09,20,06,37,10.20
2014,09,20,06,38,10.20
2014,09,20,06,39,10.20
2014,09,20,06,40,10.30
2014,09,20,06,41,10.30
2014,09,20,06,42,10.30
2014,09,20,06,43,10.30
2014,09,20,06,44,10.30
2014,09,20,06,45,10.20
2014,09,20,06,46,10.20
2014,09,20,06,47,10.20
2014,09,20,06,48,10.20
2014,09,20,06,49,10.20
2014,09,20,06,50,10.10
2014,09,20,06,51,10.10
2014,09,20,06,52,10.10
2014,09,20,06,53,10.10
2014,09,20,06,54,10.10
2014,09,20,06,55,10.10
2014,09,20,06,56,10.10
2014,09,20,06,57,10.00
2014,09,20,06,58,10.00
2014,09,20,06,59,10.00
2014,09,20,07,00,10.00
2014,09,20,07,01,10.00
2014,09,20,07,02,9.90
2014,09,20,07,03,9.90
2014,09,20,07,04,9.90
2014,09,20,07,05,9.90
2014,09,20,07,06,9.90
2014,09,20,07,07,9.90
2014,09,20,07,08,9.90
2014,09,20,07,09,9.90
2014,09,20,07,10,9.90
2014,09,20,07,11,9.90
2014,09,20,07,12,9.90
2014,09,20,07,13,9.90
2014,09,20,07,14,9.90
2014,09,20,07,15,9.80
2014,09,20,07,16,9.80
2014,09,20,07,17,9.80
2014,09,20,07,18,9.80
2014,09,20,07,19,9.80
2014,09,20,07,20,9.80
2014,09,20,07,21,9.80
2014,09,20,07,22,9.80
2014,09,20,07,23,9.80
2014,09,20,07,24,9.80
2014,09,20,07,25,9.80
2014,09,20,07,26,9.80
2014,09,20,07,27,9.80
2014,09,20,07,28,9.80
2014,09,20,07,29,9.80
2014,09,20,07,30,9.80
2014,09,20,07,31,9.80
2014,09,20,07,32,9.80
2014,09,20,07,33,9.80
2014,09,20,07,34,9.80
2014,09,20,07,35,9.80
2014,09,20,07,36,9.80
2014,09,20,07,37,9.80
2014,09,20,07,38,9.80
2014,09,20,07,39,9.80
2014,09,20,07,40,9.80
2014,09,20,07,41,9.80
2014,09,20,07,42,9.80
2014,09,20,07,43,9.80
2014,09,20,07,44,9.80
2014,09,20,07,45,9.80
2014,09,20,07,46,9.80
2014,09,20,07,47,9.80
2014,09,20,07,48,9.80
2014,09,20,07,49,9.80
2014,09,20,07,50,9.80
2014,09,20,07,51,9.80
2014,09,20,07,52,9.80
2014,09,20,07,53,9.80
2014,09,20,07,54,9.80
2014,09,20,07,55,9.80
2014,09,20,07,56,9.80
2014,09,20,07,57,9.70
2014,09,20,07,58,9.70
2014,09,20,07,59,9.70
2014,09,20,08,00,9.70
2014,09,20,08,01,9.70
2014,09,20,08,02,9.70
2014,09,20,08,03,9.80
2014,09,20,08,04,9.80
2014,09,20,08,05,9.80
2014,09,20,08,06,9.90
2014,09,20,08,07,9.90
2014,09,20,08,08,9.90
2014,09,20,08,09,10.00
2014,09,20,08,10,10.00
2014,09,20,08,11,10.10
2014,09,20,08,12,10.10
2014,09,20,08,13,10.20
2014,09,20,08,14,10.20
2014,09,20,08,15,10.20
2014,09,20,08,16,10.20
2014,09,20,08,17,10.20
2014,09,20,08,18,10.30
2014,09,20,08,19,10.30
2014,09,20,08,20,10.30
2014,09,20,08,21,10.30
2014,09,20,08,22,10.30
2014,09,20,08,23,10.30
2014,09,20,08,24,10.30
2014,09,20,08,25,10.40
2014,09,20,08,26,10.40
2014,09,20,08,27,10.40
2014,09,20,08,28,10.40
2014,09,20,08,29,10.50
2014,09,20,08,30,10.50
2014,09,20,08,31,10.60
2014,09,20,08,32,10.60
2014,09,20,08,33,10.60
2014,09,20,08,34,10.60
2014,09,20,08,35,10.60
2014,09,20,08,36,10.70
2014,09,20,08,37,10.70
2014,09,20,08,38,10.80
2014,09,20,08,39,10.80
2014,09,20,08,40,10.80
2014,09,20,08,41,10.80
2014,09,20,08,42,10.80
2014,09,20,08,43,10.80
2014,09,20,08,44,10.80
2014,09,20,08,45,10.90
2014,09,20,08,46,10.90
2014,09,20,08,47,10.90
2014,09,20,08,48,10.90
2014,09,20,08,49,10.90
2014,09,20,08,50,10.90
2014,09,20,08,51,10.90
2014,09,20,08,52,11.00
2014,09,20,08,53,11.00
2014,09,20,08,54,11.00
2014,09,20,08,55,11.10
2014,09,20,08,56,11.10
2014,09,20,08,57,11.10
2014,09,20,08,58,11.10
2014,09,20,08,59,11.10
2014,09,20,09,00,11.10
2014,09,20,09,01,11.20
2014,09,20,09,02,11.20
2014,09,20,09,03,11.20
2014,09,20,09,04,11.20
2014,09,20,09,05,11.30
2014,09,20,09,06,11.40
2014,09,20,09,07,11.40
2014,09,20,09,08,11.50
2014,09,20,09,09,11.60
2014,09,20,09,10,11.70
2014,09,20,09,11,11.80
2014,09,20,09,12,11.80
2014,09,20,09,13,11.90
2014,09,20,09,14,11.90
2014,09,20,09,15,11.90
2014,09,20,09,16,11.90
2014,09,20,09,17,12.00
2014,09,20,09,18,12.00
2014,09,20,09,19,12.10
2014,09,20,09,20,12.30
2014,09,20,09,21,12.30
2014,09,20,09,22,12.40
2014,09,20,09,23,12.50
2014,09,20,09,24,12.50
2014,09,20,09,25,12.60
2014,09,20,09,26,12.60
2014,09,20,09,27,12.60
2014,09,20,09,28,12.70
2014,09,20,09,29,12.70
2014,09,20,09,30,12.70
2014,09,20,09,31,12.80
2014,09,20,09,32,12.80
2014,09,20,09,33,12.90
2014,09,20,09,34,12.90
2014,09,20,09,35,13.00
2014,09,20,09,36,13.00
2014,09,20,09,37,13.10
2014,09,20,09,38,13.10
2014,09,20,09,39,13.10
2014,09,20,09,40,13.10
2014,09,20,09,41,13.20
2014,09,20,09,42,13.20
2014,09,20,09,43,13.30
2014,09,20,09,44,13.30
2014,09,20,09,45,13.30
2014,09,20,09,46,13.30
2014,09,20,09,47,13.30
2014,09,20,09,48,13.40
2014,09,20,09,49,13.50
2014,09,20,09,50,13.50
2014,09,20,09,51,13.60
2014,09,20,09,52,13.70
2014,09,20,09,53,13.70
2014,09,20,09,54,13.80
2014,09,20,09,55,13.80
2014,09,20,09,56,13.80
2014,09,20,09,57,13.80
2014,09,20,09,58,13.80
2014,09,20,09,59,13.90
2014,09,20,10,00,14.00
2014,09,20,10,01,14.00
2014,09,20,10,02,14.00
2014,09,20,10,03,14.10
2014,09,20,10,04,14.10
2014,09,20,10,05,14.30
2014,09,20,10,06,14.40
2014,09,20,10,07,14.40
2014,09,20,10,08,14.40
2014,09,20,10,09,14.50
2014,09,20,10,10,14.60
2014,09,20,10,11,14.70
2014,09,20,10,12,14.70
2014,09,20,10,13,14.60
2014,09,20,10,14,14.60
2014,09,20,10,15,14.60
2014,09,20,10,16,14.60
2014,09,20,10,17,14.50
2014,09,20,10,18,14.50
2014,09,20,10,19,14.50
2014,09,20,10,20,14.60
2014,09,20,10,21,14.60
2014,09,20,10,22,14.60
2014,09,20,10,23,14.70
2014,09,20,10,24,14.70
2014,09,20,10,25,14.80
2014,09,20,10,26,14.80
2014,09,20,10,27,14.80
2014,09,20,10,28,14.80
2014,09,20,10,29,14.80
2014,09,20,10,30,14.80
2014,09,20,10,31,14.90
2014,09,20,10,32,14.90
2014,09,20,10,33,14.90
2014,09,20,10,34,15.00
2014,09,20,10,35,15.10
2014,09,20,10,36,15.10
2014,09,20,10,37,15.20
2014,09,20,10,38,15.40
2014,09,20,10,39,15.50
2014,09,20,10,40,15.70
2014,09,20,10,41,15.80
2014,09,20,10,42,15.90
2014,09,20,10,43,16.00
2014,09,20,10,44,16.00
2014,09,20,10,45,16.10
2014,09,20,10,46,16.10
2014,09,20,10,47,16.20
2014,09,20,10,48,16.30
2014,09,20,10,49,16.30
2014,09,20,10,50,16.40
2014,09,20,10,51,16.40
2014,09,20,10,52,16.50
2014,09,20,10,53,16.50
2014,09,20,10,54,16.60
2014,09,20,10,55,16.70
2014,09,20,10,56,16.70
2014,09,20,10,57,16.70
2014,09,20,10,58,16.70
2014,09,20,10,59,16.80
2014,09,20,11,00,16.80
2014,09,20,11,01,16.90
2014,09,20,11,02,17.00
2014,09,20,11,03,17.00
2014,09,20,11,04,17.10
2014,09,20,11,05,17.10
2014,09,20,11,06,17.20
2014,09,20,11,07,17.20
2014,09,20,11,08,17.30
2014,09,20,11,09,17.30
2014,09,20,11,10,17.30
2014,09,20,11,11,17.40
2014,09,20,11,12,17.50
2014,09,20,11,13,17.50
2014,09,20,11,14,17.60
2014,09,20,11,15,17.60
2014,09,20,11,16,17.70
2014,09,20,11,17,17.70
2014,09,20,11,18,17.80
2014,09,20,11,19,17.80
2014,09,20,11,20,17.90
2014,09,20,11,21,17.90
2014,09,20,11,22,17.90
2014,09,20,11,23,17.90
2014,09,20,11,24,18.00
2014,09,20,11,25,18.00
2014,09,20,11,26,17.90
2014,09,20,11,27,17.90
2014,09,20,11,28,17.90
2014,09,20,11,29,17.90
2014,09,20,11,30,17.90
2014,09,20,11,31,17.90
2014,09,20,11,32,17.90
2014,09,20,11,33,17.90
2014,09,20,11,34,18.00
2014,09,20,11,35,18.00
2014,09,20,11,36,18.10
2014,09,20,11,37,18.10
2014,09,20,11,38,18.10
2014,09,20,11,39,18.10
2014,09,20,11,40,18.10
2014,09,20,11,41,18.00
2014,09,20,11,42,18.00
2014,09,20,11,43,17.90
2014,09,20,11,44,17.80
2014,09,20,11,45,17.80
2014,09,20,11,46,17.70
2014,09,20,11,47,17.70
2014,09,20,11,48,17.70
2014,09,20,11,49,17.80
2014,09,20,11,50,17.80
2014,09,20,11,51,17.90
2014,09,20,11,52,18.00
2014,09,20,11,53,18.10
2014,09,20,11,54,18.20
2014,09,20,11,55,18.20
2014,09,20,11,56,18.30
2014,09,20,11,57,18.40
2014,09,20,11,58,18.50
2014,09,20,11,59,18.60
2014,09,20,12,00,18.70
2014,09,20,12,01,18.80
2014,09,20,12,02,18.90
2014,09,20,12,03,18.90
2014,09,20,12,04,18.90
2014,09,20,12,05,18.90
2014,09,20,12,06,19.00
2014,09,20,12,07,19.10
2014,09,20,12,08,19.20
2014,09,20,12,09,19.30
2014,09,20,12,10,19.40
2014,09,20,12,11,19.50
2014,09,20,12,12,19.50
2014,09,20,12,13,19.60
2014,09,20,12,14,19.50
2014,09,20,12,15,19.40
2014,09,20,12,16,19.30
2014,09,20,12,17,19.30
2014,09,20,12,18,19.20
2014,09,20,12,19,19.10
2014,09,20,12,20,19.00
2014,09,20,12,21,18.90
2014,09,20,12,22,18.80
2014,09,20,12,23,18.80
2014,09,20,12,24,18.80
2014,09,20,12,25,18.90
2014,09,20,12,26,19.00
2014,09,20,12,27,19.00
2014,09,20,12,28,19.10
2014,09,20,12,29,19.10
2014,09,20,12,30,19.20
2014,09,20,12,31,19.20
2014,09,20,12,32,19.30
2014,09,20,12,33,19.30
2014,09,20,12,34,19.40
2014,09,20,12,35,19.30
2014,09,20,12,36,19.20
2014,09,20,12,37,19.10
2014,09,20,12,38,19.00
2014,09,20,12,39,19.00
2014,09,20,12,40,18.90
2014,09,20,12,41,18.90
2014,09,20,12,42,18.90
2014,09,20,12,43,18.90
2014,09,20,12,44,18.80
2014,09,20,12,45,18.80
2014,09,20,12,46,18.80
2014,09,20,12,47,18.70
2014,09,20,12,48,18.70
2014,09,20,12,49,18.80
2014,09,20,12,50,18.80
2014,09,20,12,51,18.90
2014,09,20,12,52,18.90
2014,09,20,12,53,19.00
2014,09,20,12,54,19.00
2014,09,20,12,55,19.00
2014,09,20,12,56,19.00
2014,09,20,12,57,19.00
2014,09,20,12,58,19.10
2014,09,20,12,59,19.10
2014,09,20,13,00,19.10
2014,09,20,13,01,19.20
2014,09,20,13,02,19.20
2014,09,20,13,03,19.20
2014,09,20,13,04,19.20
2014,09,20,13,05,19.20
2014,09,20,13,06,19.20
2014,09,20,13,07,19.20
2014,09,20,13,08,19.10
2014,09,20,13,09,19.20
2014,09,20,13,10,19.20
2014,09,20,13,11,19.20
2014,09,20,13,12,19.10
2014,09,20,13,13,19.10
2014,09,20,13,14,19.10
2014,09,20,13,15,19.10
2014,09,20,13,16,19.10
2014,09,20,13,17,19.10
2014,09,20,13,18,19.20
2014,09,20,13,19,19.20
2014,09,20,13,20,19.20
2014,09,20,13,21,19.10
2014,09,20,13,22,19.10
2014,09,20,13,23,19.00
2014,09,20,13,24,19.00
2014,09,20,13,25,19.00
2014,09,20,13,26,19.10
2014,09,20,13,27,19.10
2014,09,20,13,28,19.10
2014,09,20,13,29,19.10
2014,09,20,13,30,19.00
2014,09,20,13,31,19.00
2014,09,20,13,32,19.00
2014,09,20,13,33,18.90
2014,09,20,13,34,18.90
2014,09,20,13,35,18.90
2014,09,20,13,36,18.80
2014,09,20,13,37,18.80
2014,09,20,13,38,18.80
2014,09,20,13,39,18.70
2014,09,20,13,40,18.70
2014,09,20,13,41,18.70
2014,09,20,13,42,18.80
2014,09,20,13,43,18.80
2014,09,20,13,44,18.70
2014,09,20,13,45,18.60
2014,09,20,13,46,18.50
2014,09,20,13,47,18.40
2014,09,20,13,48,18.30
2014,09,20,13,49,18.20
2014,09,20,13,50,18.20
2014,09,20,13,51,18.20
2014,09,20,13,52,18.20
2014,09,20,13,53,18.10
2014,09,20,13,54,18.10
2014,09,20,13,55,18.10
2014,09,20,13,56,18.10
2014,09,20,13,57,18.10
2014,09,20,13,58,18.10
2014,09,20,13,59,18.20
2014,09,20,14,00,18.20
2014,09,20,14,01,18.30
2014,09,20,14,02,18.30
2014,09,20,14,03,18.30
2014,09,20,14,04,18.40
2014,09,20,14,05,18.50
2014,09,20,14,06,18.50
2014,09,20,14,07,18.60
2014,09,20,14,08,18.60
2014,09,20,14,09,18.70
2014,09,20,14,10,18.70
2014,09,20,14,11,18.60
2014,09,20,14,12,18.60
2014,09,20,14,13,18.60
2014,09,20,14,14,18.60
2014,09,20,14,15,18.60
2014,09,20,14,16,18.60
2014,09,20,14,17,18.60
2014,09,20,14,18,18.60
2014,09,20,14,19,18.60
2014,09,20,14,20,18.70
2014,09,20,14,21,18.80
2014,09,20,14,22,18.90
2014,09,20,14,23,18.90
2014,09,20,14,24,19.00
2014,09,20,14,25,19.10
2014,09,20,14,26,19.10
2014,09,20,14,27,19.10
2014,09,20,14,28,19.10
2014,09,20,14,29,19.10
2014,09,20,14,30,19.10
2014,09,20,14,31,19.20
2014,09,20,14,32,19.20
2014,09,20,14,33,19.30
2014,09,20,14,34,19.30
2014,09,20,14,35,19.30
2014,09,20,14,36,19.30
2014,09,20,14,37,19.30
2014,09,20,14,38,19.30
2014,09,20,14,39,19.30
2014,09,20,14,40,19.30
2014,09,20,14,41,19.40
2014,09,20,14,42,19.40
2014,09,20,14,43,19.40
2014,09,20,14,44,19.40
2014,09,20,14,45,19.40
2014,09,20,14,46,19.40
2014,09,20,14,47,19.40
2014,09,20,14,48,19.40
2014,09,20,14,49,19.40
2014,09,20,14,50,19.40
2014,09,20,14,51,19.40
2014,09,20,14,52,19.40
2014,09,20,14,53,19.40
2014,09,20,14,54,19.40
2014,09,20,14,55,19.40
2014,09,20,14,56,19.50
2014,09,20,14,57,19.50
2014,09,20,14,58,19.60
2014,09,20,14,59,19.60
2014,09,20,15,00,19.70
2014,09,20,15,01,19.80
2014,09,20,15,02,19.80
2014,09,20,15,03,19.90
2014,09,20,15,04,19.90
2014,09,20,15,05,20.00
2014,09,20,15,06,20.00
2014,09,20,15,07,20.10
2014,09,20,15,08,20.10
2014,09,20,15,09,20.20
2014,09,20,15,10,20.20
2014,09,20,15,11,20.30
2014,09,20,15,12,20.30
2014,09,20,15,13,20.30
2014,09,20,15,14,20.40
2014,09,20,15,15,20.40
2014,09,20,15,16,20.50
2014,09,20,15,17,20.60
2014,09,20,15,18,20.60
2014,09,20,15,19,20.60
2014,09,20,15,20,20.60
2014,09,20,15,21,20.60
2014,09,20,15,22,20.70
2014,09,20,15,23,20.70
2014,09,20,15,24,20.70
2014,09,20,15,25,20.70
2014,09,20,15,26,20.80
2014,09,20,15,27,20.80
2014,09,20,15,28,20.80
2014,09,20,15,29,20.70
2014,09,20,15,30,20.70
2014,09,20,15,31,20.70
2014,09,20,15,32,20.70
2014,09,20,15,33,20.80
2014,09,20,15,34,20.80
2014,09,20,15,35,20.80
2014,09,20,15,36,20.80
2014,09,20,15,37,20.80
2014,09,20,15,38,20.90
2014,09,20,15,39,20.90
2014,09,20,15,40,20.90
2014,09,20,15,41,20.90
2014,09,20,15,42,20.90
2014,09,20,15,43,20.90
2014,09,20,15,44,20.90
2014,09,20,15,45,20.90
2014,09,20,15,46,21.00
2014,09,20,15,47,21.00
2014,09,20,15,48,21.10
2014,09,20,15,49,21.10
2014,09,20,15,50,21.10
2014,09,20,15,51,21.10
2014,09,20,15,52,21.10
2014,09,20,15,53,21.10
2014,09,20,15,54,21.10
2014,09,20,15,55,21.10
2014,09,20,15,56,21.10
2014,09,20,15,57,21.10
2014,09,20,15,58,21.10
2014,09,20,15,59,21.10
2014,09,20,16,00,21.10
2014,09,20,16,01,21.10
2014,09,20,16,02,21.10
2014,09,20,16,03,21.20
2014,09,20,16,04,21.20
2014,09,20,16,05,21.20
2014,09,20,16,06,21.20
2014,09,20,16,07,21.30
2014,09,20,16,08,21.30
2014,09,20,16,09,21.30
2014,09,20,16,10,21.30
2014,09,20,16,11,21.30
2014,09,20,16,12,21.40
2014,09,20,16,13,21.40
2014,09,20,16,14,21.40
2014,09,20,16,15,21.50
2014,09,20,16,16,21.50
2014,09,20,16,17,21.50
2014,09,20,16,18,21.60
2014,09,20,16,19,21.60
2014,09,20,16,20,21.60
2014,09,20,16,21,21.60
2014,09,20,16,22,21.60
2014,09,20,16,23,21.50
2014,09,20,16,24,21.50
2014,09,20,16,25,21.50
2014,09,20,16,26,21.40
2014,09,20,16,27,21.40
2014,09,20,16,28,21.40
2014,09,20,16,29,21.30
2014,09,20,16,30,21.30
2014,09,20,16,31,21.20
2014,09,20,16,32,21.00
2014,09,20,16,33,20.90
2014,09,20,16,34,20.80
2014,09,20,16,35,20.80
2014,09,20,16,36,20.70
2014,09,20,16,37,20.70
2014,09,20,16,38,20.70
2014,09,20,16,39,20.70
2014,09,20,16,40,20.70
2014,09,20,16,41,20.70
2014,09,20,16,42,20.70
2014,09,20,16,43,20.70
2014,09,20,16,44,20.60
2014,09,20,16,45,20.60
2014,09,20,16,46,20.60
2014,09,20,16,47,20.60
2014,09,20,16,48,20.70
2014,09,20,16,49,20.70
2014,09,20,16,50,20.70
2014,09,20,16,51,20.70
2014,09,20,16,52,20.70
2014,09,20,16,53,20.80
2014,09,20,16,54,20.80
2014,09,20,16,55,20.80
2014,09,20,16,56,20.80
2014,09,20,16,57,20.70
2014,09,20,16,58,20.60
2014,09,20,16,59,20.50
2014,09,20,17,00,20.40
2014,09,20,17,01,20.40
2014,09,20,17,02,20.30
2014,09,20,17,03,20.30
2014,09,20,17,04,20.30
2014,09,20,17,05,20.30
2014,09,20,17,06,20.30
2014,09,20,17,07,20.40
2014,09,20,17,08,20.40
2014,09,20,17,09,20.50
2014,09,20,17,10,20.50
2014,09,20,17,11,20.60
2014,09,20,17,12,20.70
2014,09,20,17,13,20.70
2014,09,20,17,14,20.70
2014,09,20,17,15,20.70
2014,09,20,17,16,20.80
2014,09,20,17,17,20.80
2014,09,20,17,18,20.80
2014,09,20,17,19,20.90
2014,09,20,17,20,21.00
2014,09,20,17,21,21.00
2014,09,20,17,22,21.10